Time,TemperatureF,DewpointF,PressureIn,WindDirection,WindDirectionDegrees,WindSpeedMPH,WindSpeedGustMPH,Humidity,HourlyPrecipIn,Conditions,Clouds,dailyrainin,SolarRadiationWatts/m^2,SoftwareType,DateUTC
2013-05-08 00:07:00,55.9,31.5,29.62,North,-999,-999.0,-999.0,32,0.00,,,-99.99,0.0,Linux-Irox,2013-05-08 07:07:00,
2013-05-08 00:17:00,55.8,30.6,29.62,North,-999,-999.0,-999.0,30,0.00,,,-99.99,0.0,Linux-Irox,2013-05-08 07:17:00,
2013-05-08 00:27:00,55.8,30.6,29.62,North,-999,-999.0,-999.0,30,0.00,,,-99.99,0.0,Linux-Irox,2013-05-08 07:27:00,
2013-05-08 00:37:00,55.8,30.6,29.62,North,-999,-999.0,-999.0,30,0.00,,,-99.99,0.0,Linux-Irox,2013-05-08 07:37:00,
2013-05-08 00:47:00,55.8,30.6,29.62,North,-999,-999.0,-999.0,30,0.00,,,-99.99,0.0,Linux-Irox,2013-05-08 07:47:00,
2013-05-08 00:57:00,55.6,30.4,29.62,North,-999,-999.0,-999.0,30,0.00,,,-99.99,0.0,Linux-Irox,2013-05-08 07:57:00,
2013-05-08 01:07:00,55.4,30.6,29.61,North,-999,-999.0,-999.0,31,0.00,,,-99.99,0.0,Linux-Irox,2013-05-08 08:07:00,
2013-05-08 01:17:00,55.4,30.6,29.61,North,-999,-999.0,-999.0,31,0.00,,,-99.99,0.0,Linux-Irox,2013-05-08 08:17:00,
2013-05-08 01:27:00,55.4,30.9,29.62,North,-999,-999.0,-999.0,32,0.00,,,-99.99,0.0,Linux-Irox,2013-05-08 08:27:00,
2013-05-08 01:37:00,55.2,31.8,29.62,North,-999,-999.0,-999.0,35,0.00,,,-99.99,0.0,Linux-Irox,2013-05-08 08:37:00,
2013-05-08 01:47:00,55.0,31.6,29.61,North,-999,-999.0,-999.0,35,0.00,,,-99.99,0.0,Linux-Irox,2013-05-08 08:47:00,
2013-05-08 01:57:00,55.2,31.8,29.61,North,-999,-999.0,-999.0,35,0.00,,,-99.99,0.0,Linux-Irox,2013-05-08 08:57:00,
2013-05-08 02:07:00,55.2,32.2,29.61,North,-999,-999.0,-999.0,36,0.00,,,-99.99,0.0,Linux-Irox,2013-05-08 09:07:00,
2013-05-08 02:17:00,55.2,32.2,29.61,North,-999,-999.0,-999.0,36,0.00,,,-99.99,0.0,Linux-Irox,2013-05-08 09:17:00,
2013-05-08 02:27:00,55.2,32.2,29.61,North,-999,-999.0,-999.0,36,0.00,,,-99.99,0.0,Linux-Irox,2013-05-08 09:27:00,
2013-05-08 02:37:00,55.2,32.2,29.61,North,-999,-999.0,-999.0,36,0.00,,,-99.99,0.0,Linux-Irox,2013-05-08 09:37:00,
2013-05-08 02:47:00,55.2,32.2,29.61,North,-999,-999.0,-999.0,36,0.00,,,-99.99,0.0,Linux-Irox,2013-05-08 09:47:00,
2013-05-08 02:57:00,55.2,32.2,29.61,North,-999,-999.0,-999.0,36,0.00,,,-99.99,0.0,Linux-Irox,2013-05-08 09:57:00,
2013-05-08 03:07:00,55.2,31.8,29.62,North,-999,-999.0,-999.0,35,0.00,,,-99.99,0.0,Linux-Irox,2013-05-08 10:07:00,
2013-05-08 03:17:00,55.2,31.8,29.62,North,-999,-999.0,-999.0,35,0.00,,,-99.99,0.0,Linux-Irox,2013-05-08 10:17:00,
2013-05-08 03:27:00,55.0,32.0,29.62,North,-999,-999.0,-999.0,36,0.03,,,-99.99,0.0,Linux-Irox,2013-05-08 10:27:00,
2013-05-08 03:37:00,54.7,32.0,29.62,North,-999,-999.0,-999.0,37,0.03,,,-99.99,0.0,Linux-Irox,2013-05-08 10:37:00,
2013-05-08 03:47:00,54.5,32.2,29.62,North,-999,-999.0,-999.0,38,0.03,,,-99.99,0.0,Linux-Irox,2013-05-08 10:47:00,
2013-05-08 03:57:00,54.5,32.9,29.62,North,-999,-999.0,-999.0,40,0.03,,,-99.99,0.0,Linux-Irox,2013-05-08 10:57:00,
2013-05-08 04:07:00,54.5,32.5,29.62,North,-999,-999.0,-999.0,39,0.03,,,-99.99,0.0,Linux-Irox,2013-05-08 11:07:00,
2013-05-08 04:17:00,54.3,33.1,29.62,North,-999,-999.0,-999.0,41,0.03,,,-99.99,0.0,Linux-Irox,2013-05-08 11:17:00,
2013-05-08 04:27:00,54.3,33.1,29.63,North,-999,-999.0,-999.0,41,0.03,,,-99.99,0.0,Linux-Irox,2013-05-08 11:27:00,
2013-05-08 04:37:00,54.3,33.4,29.63,North,-999,-999.0,-999.0,42,0.00,,,-99.99,0.0,Linux-Irox,2013-05-08 11:37:00,
2013-05-08 04:47:00,54.3,33.4,29.62,North,-999,-999.0,-999.0,42,0.00,,,-99.99,0.0,Linux-Irox,2013-05-08 11:47:00,
2013-05-08 04:57:00,54.5,33.6,29.62,North,-999,-999.0,-999.0,42,0.00,,,-99.99,0.0,Linux-Irox,2013-05-08 11:57:00,
2013-05-08 05:07:00,54.3,33.4,29.63,North,-999,-999.0,-999.0,42,0.00,,,-99.99,0.0,Linux-Irox,2013-05-08 12:07:00,
2013-05-08 05:17:00,54.3,33.8,29.63,North,-999,-999.0,-999.0,43,0.00,,,-99.99,0.0,Linux-Irox,2013-05-08 12:17:00,
2013-05-08 05:27:00,54.5,34.0,29.63,North,-999,-999.0,-999.0,43,0.00,,,-99.99,0.0,Linux-Irox,2013-05-08 12:27:00,
2013-05-08 05:37:00,54.3,33.8,29.63,North,-999,-999.0,-999.0,43,0.00,,,-99.99,0.0,Linux-Irox,2013-05-08 12:37:00,
2013-05-08 05:47:00,54.5,34.0,29.64,North,-999,-999.0,-999.0,43,0.00,,,-99.99,0.0,Linux-Irox,2013-05-08 12:47:00,
2013-05-08 05:57:00,54.3,33.8,29.64,North,-999,-999.0,-999.0,43,0.00,,,-99.99,0.0,Linux-Irox,2013-05-08 12:57:00,
2013-05-08 06:07:00,54.5,34.0,29.64,North,-999,-999.0,-999.0,43,0.00,,,-99.99,0.0,Linux-Irox,2013-05-08 13:07:00,
2013-05-08 06:17:00,54.5,34.0,29.64,North,-999,-999.0,-999.0,43,0.00,,,-99.99,0.0,Linux-Irox,2013-05-08 13:17:00,
2013-05-08 06:27:00,54.5,34.3,29.65,North,-999,-999.0,-999.0,44,0.00,,,-99.99,0.0,Linux-Irox,2013-05-08 13:27:00,
2013-05-08 06:31:00,54.5,34.3,29.65,North,-999,-999.0,-999.0,44,0.00,,,-99.99,0.0,Linux-Irox,2013-05-08 13:31:00,
2013-05-08 06:37:00,54.5,34.3,29.65,North,-999,-999.0,-999.0,44,0.00,,,-99.99,0.0,Linux-Irox,2013-05-08 13:37:00,
2013-05-08 06:46:00,54.5,34.3,29.65,North,-999,-999.0,-999.0,44,0.00,,,-99.99,0.0,Linux-Irox,2013-05-08 13:46:00,
2013-05-08 06:47:00,54.5,34.0,29.65,North,-999,-999.0,-999.0,43,0.00,,,-99.99,0.0,Linux-Irox,2013-05-08 13:47:00,
2013-05-08 06:57:00,54.5,34.0,29.65,North,-999,-999.0,-999.0,43,0.00,,,-99.99,0.0,Linux-Irox,2013-05-08 13:57:00,
2013-05-08 07:01:00,54.5,34.0,29.66,North,-999,-999.0,-999.0,43,0.00,,,-99.99,0.0,Linux-Irox,2013-05-08 14:01:00,
2013-05-08 07:07:00,54.5,34.0,29.66,North,-999,-999.0,-999.0,43,0.00,,,-99.99,0.0,Linux-Irox,2013-05-08 14:07:00,
2013-05-08 07:16:00,54.7,34.2,29.66,North,-999,-999.0,-999.0,43,0.00,,,-99.99,0.0,Linux-Irox,2013-05-08 14:16:00,
2013-05-08 07:17:00,54.7,34.2,29.66,North,-999,-999.0,-999.0,43,0.00,,,-99.99,0.0,Linux-Irox,2013-05-08 14:17:00,
2013-05-08 07:27:00,55.2,34.7,29.67,North,-999,-999.0,-999.0,43,0.00,,,-99.99,0.0,Linux-Irox,2013-05-08 14:27:00,
2013-05-08 07:31:00,55.2,34.7,29.67,North,-999,-999.0,-999.0,43,0.00,,,-99.99,0.0,Linux-Irox,2013-05-08 14:31:00,
2013-05-08 07:37:00,55.4,34.2,29.67,North,-999,-999.0,-999.0,41,0.00,,,-99.99,0.0,Linux-Irox,2013-05-08 14:37:00,
2013-05-08 07:46:00,55.9,34.3,29.66,North,-999,-999.0,-999.0,40,0.00,,,-99.99,0.0,Linux-Irox,2013-05-08 14:46:00,
2013-05-08 07:47:00,56.1,34.5,29.66,North,-999,-999.0,-999.0,40,0.00,,,-99.99,0.0,Linux-Irox,2013-05-08 14:47:00,
2013-05-08 07:57:00,56.7,34.7,29.66,North,-999,-999.0,-999.0,39,0.00,,,-99.99,0.0,Linux-Irox,2013-05-08 14:57:00,
2013-05-08 08:01:00,56.5,34.5,29.67,North,-999,-999.0,-999.0,39,0.00,,,-99.99,0.0,Linux-Irox,2013-05-08 15:01:00,
2013-05-08 08:07:00,56.1,34.5,29.67,North,-999,-999.0,-999.0,40,0.00,,,-99.99,0.0,Linux-Irox,2013-05-08 15:07:00,
2013-05-08 08:16:00,55.9,34.3,29.67,North,-999,-999.0,-999.0,40,0.00,,,-99.99,0.0,Linux-Irox,2013-05-08 15:16:00,
2013-05-08 08:17:00,55.9,34.0,29.67,North,-999,-999.0,-999.0,39,0.00,,,-99.99,0.0,Linux-Irox,2013-05-08 15:17:00,
2013-05-08 08:27:00,55.6,33.6,29.68,North,-999,-999.0,-999.0,39,0.00,,,-99.99,0.0,Linux-Irox,2013-05-08 15:27:00,
2013-05-08 08:31:00,55.4,33.4,29.68,North,-999,-999.0,-999.0,39,0.00,,,-99.99,0.0,Linux-Irox,2013-05-08 15:31:00,
2013-05-08 08:37:00,55.6,33.6,29.68,North,-999,-999.0,-999.0,39,0.00,,,-99.99,0.0,Linux-Irox,2013-05-08 15:37:00,
2013-05-08 08:46:00,55.8,33.8,29.69,North,-999,-999.0,-999.0,39,0.00,,,-99.99,0.0,Linux-Irox,2013-05-08 15:46:00,
2013-05-08 08:47:00,55.8,33.8,29.69,North,-999,-999.0,-999.0,39,0.00,,,-99.99,0.0,Linux-Irox,2013-05-08 15:47:00,
2013-05-08 08:57:00,56.1,33.8,29.69,North,-999,-999.0,-999.0,38,0.00,,,-99.99,0.0,Linux-Irox,2013-05-08 15:57:00,
2013-05-08 09:01:00,56.1,33.8,29.70,North,-999,-999.0,-999.0,38,0.00,,,-99.99,0.0,Linux-Irox,2013-05-08 16:01:00,
2013-05-08 09:07:00,56.1,33.8,29.70,North,-999,-999.0,-999.0,38,0.00,,,-99.99,0.0,Linux-Irox,2013-05-08 16:07:00,
2013-05-08 09:16:00,56.3,34.0,29.70,North,-999,-999.0,-999.0,38,0.00,,,-99.99,0.0,Linux-Irox,2013-05-08 16:16:00,
2013-05-08 09:17:00,56.5,34.2,29.70,North,-999,-999.0,-999.0,38,0.00,,,-99.99,0.0,Linux-Irox,2013-05-08 16:17:00,
2013-05-08 09:27:00,56.8,34.2,29.70,North,-999,-999.0,-999.0,37,0.00,,,-99.99,0.0,Linux-Irox,2013-05-08 16:27:00,
2013-05-08 09:31:00,57.0,34.0,29.70,North,-999,-999.0,-999.0,36,0.00,,,-99.99,0.0,Linux-Irox,2013-05-08 16:31:00,
2013-05-08 09:37:00,57.0,33.3,29.70,North,-999,-999.0,-999.0,34,0.00,,,-99.99,0.0,Linux-Irox,2013-05-08 16:37:00,
2013-05-08 09:46:00,57.6,33.8,29.70,North,-999,-999.0,-999.0,34,0.00,,,-99.99,0.0,Linux-Irox,2013-05-08 16:46:00,
2013-05-08 09:47:00,57.7,33.6,29.70,North,-999,-999.0,-999.0,33,0.00,,,-99.99,0.0,Linux-Irox,2013-05-08 16:47:00,
2013-05-08 09:57:00,58.6,33.8,29.70,North,-999,-999.0,-999.0,31,0.00,,,-99.99,0.0,Linux-Irox,2013-05-08 16:57:00,
2013-05-08 10:01:00,59.2,34.0,29.69,North,-999,-999.0,-999.0,30,0.00,,,-99.99,0.0,Linux-Irox,2013-05-08 17:01:00,
2013-05-08 10:07:00,60.4,35.2,29.69,North,-999,-999.0,-999.0,30,0.00,,,-99.99,0.0,Linux-Irox,2013-05-08 17:07:00,
2013-05-08 10:16:00,61.7,36.5,29.69,North,-999,-999.0,-999.0,30,0.00,,,-99.99,0.0,Linux-Irox,2013-05-08 17:16:00,
2013-05-08 10:17:00,61.9,36.3,29.69,North,-999,-999.0,-999.0,29,0.00,,,-99.99,0.0,Linux-Irox,2013-05-08 17:17:00,
2013-05-08 10:27:00,62.2,34.2,29.70,North,-999,-999.0,-999.0,22,0.00,,,-99.99,0.0,Linux-Irox,2013-05-08 17:27:00,
2013-05-08 10:31:00,62.8,34.7,29.70,North,-999,-999.0,-999.0,22,0.00,,,-99.99,0.0,Linux-Irox,2013-05-08 17:31:00,
2013-05-08 10:37:00,63.7,35.2,29.70,North,-999,-999.0,-999.0,21,0.00,,,-99.99,0.0,Linux-Irox,2013-05-08 17:37:00,
2013-05-08 10:46:00,64.0,32.7,29.71,North,-999,-999.0,-999.0,13,0.00,,,-99.99,0.0,Linux-Irox,2013-05-08 17:46:00,
2013-05-08 10:47:00,64.4,33.8,29.71,North,-999,-999.0,-999.0,15,0.00,,,-99.99,0.0,Linux-Irox,2013-05-08 17:47:00,
2013-05-08 10:57:00,64.8,33.1,29.71,North,-999,-999.0,-999.0,12,0.00,,,-99.99,0.0,Linux-Irox,2013-05-08 17:57:00,
2013-05-08 11:01:00,64.4,32.0,29.72,North,-999,-999.0,-999.0,10,0.00,,,-99.99,0.0,Linux-Irox,2013-05-08 18:01:00,
2013-05-08 11:07:00,65.5,31.6,29.72,North,-999,-999.0,-999.0,6,0.00,,,-99.99,0.0,Linux-Irox,2013-05-08 18:07:00,
2013-05-08 11:16:00,66.0,32.2,29.72,North,-999,-999.0,-999.0,6,0.00,,,-99.99,0.0,Linux-Irox,2013-05-08 18:16:00,
2013-05-08 11:17:00,66.2,32.4,29.72,North,-999,-999.0,-999.0,6,0.00,,,-99.99,0.0,Linux-Irox,2013-05-08 18:17:00,
2013-05-08 11:27:00,66.6,32.7,29.72,North,-999,-999.0,-999.0,6,0.00,,,-99.99,0.0,Linux-Irox,2013-05-08 18:27:00,
2013-05-08 11:31:00,66.9,33.1,29.72,North,-999,-999.0,-999.0,6,0.00,,,-99.99,0.0,Linux-Irox,2013-05-08 18:31:00,
2013-05-08 11:37:00,67.6,33.8,29.72,North,-999,-999.0,-999.0,6,0.00,,,-99.99,0.0,Linux-Irox,2013-05-08 18:37:00,
2013-05-08 11:46:00,67.6,33.8,29.72,North,-999,-999.0,-999.0,6,0.00,,,-99.99,0.0,Linux-Irox,2013-05-08 18:46:00,
2013-05-08 11:47:00,67.5,33.6,29.72,North,-999,-999.0,-999.0,6,0.00,,,-99.99,0.0,Linux-Irox,2013-05-08 18:47:00,
2013-05-08 11:57:00,67.1,33.3,29.72,North,-999,-999.0,-999.0,6,0.00,,,-99.99,0.0,Linux-Irox,2013-05-08 18:57:00,
2013-05-08 12:01:00,66.4,32.5,29.72,North,-999,-999.0,-999.0,6,0.00,,,-99.99,0.0,Linux-Irox,2013-05-08 19:01:00,
2013-05-08 12:07:00,66.4,32.5,29.72,North,-999,-999.0,-999.0,6,0.00,,,-99.99,0.0,Linux-Irox,2013-05-08 19:07:00,
2013-05-08 12:16:00,66.4,32.5,29.72,North,-999,-999.0,-999.0,6,0.00,,,-99.99,0.0,Linux-Irox,2013-05-08 19:16:00,
2013-05-08 12:17:00,66.4,32.5,29.72,North,-999,-999.0,-999.0,6,0.00,,,-99.99,0.0,Linux-Irox,2013-05-08 19:17:00,
2013-05-08 12:27:00,67.1,33.3,29.72,North,-999,-999.0,-999.0,6,0.00,,,-99.99,0.0,Linux-Irox,2013-05-08 19:27:00,
2013-05-08 12:31:00,67.1,33.3,29.72,North,-999,-999.0,-999.0,6,0.00,,,-99.99,0.0,Linux-Irox,2013-05-08 19:31:00,
2013-05-08 12:37:00,66.6,32.7,29.72,North,-999,-999.0,-999.0,6,0.00,,,-99.99,0.0,Linux-Irox,2013-05-08 19:37:00,
2013-05-08 12:46:00,67.1,33.3,29.70,North,-999,-999.0,-999.0,6,0.00,,,-99.99,0.0,Linux-Irox,2013-05-08 19:46:00,
2013-05-08 12:47:00,67.3,33.4,29.70,North,-999,-999.0,-999.0,6,0.00,,,-99.99,0.0,Linux-Irox,2013-05-08 19:47:00,
2013-05-08 12:57:00,66.7,32.9,29.70,North,-999,-999.0,-999.0,6,0.00,,,-99.99,0.0,Linux-Irox,2013-05-08 19:57:00,
2013-05-08 13:01:00,66.7,32.9,29.71,North,-999,-999.0,-999.0,6,0.00,,,-99.99,0.0,Linux-Irox,2013-05-08 20:01:00,
2013-05-08 13:07:00,67.3,33.4,29.71,North,-999,-999.0,-999.0,6,0.00,,,-99.99,0.0,Linux-Irox,2013-05-08 20:07:00,
2013-05-08 13:16:00,66.9,33.1,29.71,North,-999,-999.0,-999.0,6,0.00,,,-99.99,0.0,Linux-Irox,2013-05-08 20:16:00,
2013-05-08 13:17:00,66.6,32.7,29.71,North,-999,-999.0,-999.0,6,0.00,,,-99.99,0.0,Linux-Irox,2013-05-08 20:17:00,
2013-05-08 13:27:00,65.8,32.0,29.71,North,-999,-999.0,-999.0,6,0.00,,,-99.99,0.0,Linux-Irox,2013-05-08 20:27:00,
2013-05-08 13:31:00,65.3,31.5,29.71,North,-999,-999.0,-999.0,6,0.00,,,-99.99,0.0,Linux-Irox,2013-05-08 20:31:00,
2013-05-08 13:37:00,65.7,31.8,29.71,North,-999,-999.0,-999.0,6,0.00,,,-99.99,0.0,Linux-Irox,2013-05-08 20:37:00,
2013-05-08 13:46:00,66.4,32.5,29.71,North,-999,-999.0,-999.0,6,0.00,,,-99.99,0.0,Linux-Irox,2013-05-08 20:46:00,
2013-05-08 13:47:00,66.6,32.7,29.71,North,-999,-999.0,-999.0,6,0.00,,,-99.99,0.0,Linux-Irox,2013-05-08 20:47:00,
2013-05-08 13:57:00,68.0,33.8,29.71,North,-999,-999.0,-999.0,5,0.00,,,-99.99,0.0,Linux-Irox,2013-05-08 20:57:00,
2013-05-08 14:01:00,69.3,35.1,29.70,North,-999,-999.0,-999.0,5,0.00,,,-99.99,0.0,Linux-Irox,2013-05-08 21:01:00,
2013-05-08 14:07:00,71.1,36.9,29.70,North,-999,-999.0,-999.0,5,0.00,,,-99.99,0.0,Linux-Irox,2013-05-08 21:07:00,
2013-05-08 14:16:00,69.6,35.4,29.70,North,-999,-999.0,-999.0,5,0.00,,,-99.99,0.0,Linux-Irox,2013-05-08 21:16:00,
2013-05-08 14:17:00,69.3,35.1,29.70,North,-999,-999.0,-999.0,5,0.00,,,-99.99,0.0,Linux-Irox,2013-05-08 21:17:00,
2013-05-08 14:27:00,66.9,32.7,29.70,North,-999,-999.0,-999.0,5,0.00,,,-99.99,0.0,Linux-Irox,2013-05-08 21:27:00,
2013-05-08 14:31:00,67.1,32.9,29.70,North,-999,-999.0,-999.0,5,0.00,,,-99.99,0.0,Linux-Irox,2013-05-08 21:31:00,
2013-05-08 14:37:00,67.1,32.9,29.70,North,-999,-999.0,-999.0,5,0.00,,,-99.99,0.0,Linux-Irox,2013-05-08 21:37:00,
2013-05-08 14:46:00,67.3,33.4,29.70,North,-999,-999.0,-999.0,6,0.00,,,-99.99,0.0,Linux-Irox,2013-05-08 21:46:00,
2013-05-08 14:47:00,67.5,33.6,29.70,North,-999,-999.0,-999.0,6,0.00,,,-99.99,0.0,Linux-Irox,2013-05-08 21:47:00,
2013-05-08 14:57:00,68.2,34.0,29.70,North,-999,-999.0,-999.0,5,0.00,,,-99.99,0.0,Linux-Irox,2013-05-08 21:57:00,
2013-05-08 15:01:00,69.4,35.2,29.70,North,-999,-999.0,-999.0,5,0.00,,,-99.99,0.0,Linux-Irox,2013-05-08 22:01:00,
2013-05-08 15:07:00,70.2,36.0,29.70,North,-999,-999.0,-999.0,5,0.00,,,-99.99,0.0,Linux-Irox,2013-05-08 22:07:00,
2013-05-08 15:16:00,70.2,36.0,29.70,North,-999,-999.0,-999.0,5,0.00,,,-99.99,0.0,Linux-Irox,2013-05-08 22:16:00,
2013-05-08 15:17:00,70.2,36.0,29.70,North,-999,-999.0,-999.0,5,0.00,,,-99.99,0.0,Linux-Irox,2013-05-08 22:17:00,
2013-05-08 15:27:00,70.5,36.3,29.68,North,-999,-999.0,-999.0,5,0.00,,,-99.99,0.0,Linux-Irox,2013-05-08 22:27:00,
2013-05-08 15:31:00,70.9,36.7,29.68,North,-999,-999.0,-999.0,5,0.00,,,-99.99,0.0,Linux-Irox,2013-05-08 22:31:00,
2013-05-08 15:37:00,70.0,35.8,29.68,North,-999,-999.0,-999.0,5,0.00,,,-99.99,0.0,Linux-Irox,2013-05-08 22:37:00,
2013-05-08 15:46:00,70.3,36.1,29.67,North,-999,-999.0,-999.0,5,0.00,,,-99.99,0.0,Linux-Irox,2013-05-08 22:46:00,
2013-05-08 15:47:00,70.2,36.0,29.67,North,-999,-999.0,-999.0,5,0.00,,,-99.99,0.0,Linux-Irox,2013-05-08 22:47:00,
2013-05-08 15:57:00,70.0,35.8,29.67,North,-999,-999.0,-999.0,5,0.00,,,-99.99,0.0,Linux-Irox,2013-05-08 22:57:00,
2013-05-08 16:01:00,69.3,35.1,29.67,North,-999,-999.0,-999.0,5,0.00,,,-99.99,0.0,Linux-Irox,2013-05-08 23:01:00,
2013-05-08 16:07:00,68.4,34.2,29.67,North,-999,-999.0,-999.0,5,0.00,,,-99.99,0.0,Linux-Irox,2013-05-08 23:07:00,
2013-05-08 16:16:00,68.5,34.3,29.67,North,-999,-999.0,-999.0,5,0.00,,,-99.99,0.0,Linux-Irox,2013-05-08 23:16:00,
2013-05-08 16:17:00,68.5,34.3,29.67,North,-999,-999.0,-999.0,5,0.00,,,-99.99,0.0,Linux-Irox,2013-05-08 23:17:00,
2013-05-08 16:27:00,68.7,34.5,29.67,North,-999,-999.0,-999.0,5,0.00,,,-99.99,0.0,Linux-Irox,2013-05-08 23:27:00,
2013-05-08 16:31:00,68.5,34.3,29.67,North,-999,-999.0,-999.0,5,0.00,,,-99.99,0.0,Linux-Irox,2013-05-08 23:31:00,
2013-05-08 16:37:00,68.2,34.0,29.67,North,-999,-999.0,-999.0,5,0.00,,,-99.99,0.0,Linux-Irox,2013-05-08 23:37:00,
2013-05-08 16:46:00,67.5,33.3,29.67,North,-999,-999.0,-999.0,5,0.00,,,-99.99,0.0,Linux-Irox,2013-05-08 23:46:00,
2013-05-08 16:47:00,67.3,33.1,29.67,North,-999,-999.0,-999.0,5,0.00,,,-99.99,0.0,Linux-Irox,2013-05-08 23:47:00,
2013-05-08 16:57:00,67.1,32.9,29.67,North,-999,-999.0,-999.0,5,0.00,,,-99.99,0.0,Linux-Irox,2013-05-08 23:57:00,
2013-05-08 17:01:00,67.1,32.9,29.68,North,-999,-999.0,-999.0,5,0.00,,,-99.99,0.0,Linux-Irox,2013-05-09 00:01:00,
2013-05-08 17:07:00,66.9,32.7,29.68,North,-999,-999.0,-999.0,5,0.00,,,-99.99,0.0,Linux-Irox,2013-05-09 00:07:00,
2013-05-08 17:16:00,67.5,33.3,29.68,North,-999,-999.0,-999.0,5,0.00,,,-99.99,0.0,Linux-Irox,2013-05-09 00:16:00,
2013-05-08 17:17:00,67.6,33.4,29.68,North,-999,-999.0,-999.0,5,0.00,,,-99.99,0.0,Linux-Irox,2013-05-09 00:17:00,
2013-05-08 17:27:00,68.5,34.3,29.68,North,-999,-999.0,-999.0,5,0.00,,,-99.99,0.0,Linux-Irox,2013-05-09 00:27:00,
2013-05-08 17:31:00,68.7,34.5,29.68,North,-999,-999.0,-999.0,5,0.00,,,-99.99,0.0,Linux-Irox,2013-05-09 00:31:00,
2013-05-08 17:37:00,68.4,34.2,29.68,North,-999,-999.0,-999.0,5,0.00,,,-99.99,0.0,Linux-Irox,2013-05-09 00:37:00,
2013-05-08 17:46:00,68.5,34.3,29.68,North,-999,-999.0,-999.0,5,0.00,,,-99.99,0.0,Linux-Irox,2013-05-09 00:46:00,
2013-05-08 17:47:00,68.2,34.0,29.68,North,-999,-999.0,-999.0,5,0.00,,,-99.99,0.0,Linux-Irox,2013-05-09 00:47:00,
2013-05-08 17:57:00,67.3,33.1,29.68,North,-999,-999.0,-999.0,5,0.00,,,-99.99,0.0,Linux-Irox,2013-05-09 00:57:00,
2013-05-08 18:01:00,67.1,32.9,29.67,North,-999,-999.0,-999.0,5,0.00,,,-99.99,0.0,Linux-Irox,2013-05-09 01:01:00,
2013-05-08 18:07:00,66.7,32.5,29.67,North,-999,-999.0,-999.0,5,0.00,,,-99.99,0.0,Linux-Irox,2013-05-09 01:07:00,
2013-05-08 18:16:00,66.6,32.4,29.67,North,-999,-999.0,-999.0,5,0.00,,,-99.99,0.0,Linux-Irox,2013-05-09 01:16:00,
2013-05-08 18:17:00,66.7,32.5,29.67,North,-999,-999.0,-999.0,5,0.00,,,-99.99,0.0,Linux-Irox,2013-05-09 01:17:00,
2013-05-08 18:27:00,66.2,32.0,29.67,North,-999,-999.0,-999.0,5,0.00,,,-99.99,0.0,Linux-Irox,2013-05-09 01:27:00,
2013-05-08 18:31:00,65.8,31.6,29.67,North,-999,-999.0,-999.0,5,0.00,,,-99.99,0.0,Linux-Irox,2013-05-09 01:31:00,
2013-05-08 18:37:00,65.5,31.3,29.67,North,-999,-999.0,-999.0,5,0.00,,,-99.99,0.0,Linux-Irox,2013-05-09 01:37:00,
2013-05-08 18:46:00,64.9,30.7,29.67,North,-999,-999.0,-999.0,5,0.00,,,-99.99,0.0,Linux-Irox,2013-05-09 01:46:00,
2013-05-08 18:47:00,64.8,30.6,29.67,North,-999,-999.0,-999.0,5,0.00,,,-99.99,0.0,Linux-Irox,2013-05-09 01:47:00,
2013-05-08 18:57:00,63.9,29.7,29.67,North,-999,-999.0,-999.0,5,0.00,,,-99.99,0.0,Linux-Irox,2013-05-09 01:57:00,
2013-05-08 19:01:00,63.3,29.1,29.66,North,-999,-999.0,-999.0,5,0.00,,,-99.99,0.0,Linux-Irox,2013-05-09 02:01:00,
2013-05-08 19:07:00,63.0,28.8,29.66,North,-999,-999.0,-999.0,5,0.00,,,-99.99,0.0,Linux-Irox,2013-05-09 02:07:00,
2013-05-08 19:16:00,62.2,29.1,29.66,North,-999,-999.0,-999.0,8,0.00,,,-99.99,0.0,Linux-Irox,2013-05-09 02:16:00,
2013-05-08 19:17:00,62.1,28.9,29.66,North,-999,-999.0,-999.0,8,0.00,,,-99.99,0.0,Linux-Irox,2013-05-09 02:17:00,
2013-05-08 19:27:00,61.3,28.2,29.67,North,-999,-999.0,-999.0,8,0.00,,,-99.99,0.0,Linux-Irox,2013-05-09 02:27:00,
2013-05-08 19:32:00,61.2,28.0,29.67,North,-999,-999.0,-999.0,8,0.00,,,-99.99,0.0,Linux-Irox,2013-05-09 02:32:00,
2013-05-08 19:37:00,61.0,27.9,29.67,North,-999,-999.0,-999.0,8,0.00,,,-99.99,0.0,Linux-Irox,2013-05-09 02:37:00,
2013-05-08 19:46:00,61.2,29.5,29.68,North,-999,-999.0,-999.0,12,0.00,,,-99.99,0.0,Linux-Irox,2013-05-09 02:46:00,
2013-05-08 19:47:00,61.2,29.5,29.68,North,-999,-999.0,-999.0,12,0.00,,,-99.99,0.0,Linux-Irox,2013-05-09 02:47:00,
2013-05-08 19:57:00,60.6,28.6,29.68,North,-999,-999.0,-999.0,11,0.00,,,-99.99,0.0,Linux-Irox,2013-05-09 02:57:00,
2013-05-08 20:01:00,60.3,28.6,29.66,North,-999,-999.0,-999.0,12,0.00,,,-99.99,0.0,Linux-Irox,2013-05-09 03:01:00,
2013-05-08 20:07:00,59.9,28.2,29.66,North,-999,-999.0,-999.0,12,0.00,,,-99.99,0.0,Linux-Irox,2013-05-09 03:07:00,
2013-05-08 20:16:00,59.5,27.9,29.66,North,-999,-999.0,-999.0,12,0.00,,,-99.99,0.0,Linux-Irox,2013-05-09 03:16:00,
2013-05-08 20:17:00,59.4,27.7,29.66,North,-999,-999.0,-999.0,12,0.00,,,-99.99,0.0,Linux-Irox,2013-05-09 03:17:00,
2013-05-08 20:27:00,59.2,27.5,29.66,North,-999,-999.0,-999.0,12,0.00,,,-99.99,0.0,Linux-Irox,2013-05-09 03:27:00,
2013-05-08 20:37:00,58.6,28.0,29.66,North,-999,-999.0,-999.0,15,0.00,,,-99.99,0.0,Linux-Irox,2013-05-09 03:37:00,
2013-05-08 20:47:00,58.1,28.6,29.66,North,-999,-999.0,-999.0,18,0.00,,,-99.99,0.0,Linux-Irox,2013-05-09 03:47:00,
2013-05-08 20:57:00,57.6,28.8,29.66,North,-999,-999.0,-999.0,20,0.00,,,-99.99,0.0,Linux-Irox,2013-05-09 03:57:00,
2013-05-08 21:07:00,57.2,28.8,29.65,North,-999,-999.0,-999.0,21,0.00,,,-99.99,0.0,Linux-Irox,2013-05-09 04:07:00,
2013-05-08 21:17:00,57.0,29.3,29.65,North,-999,-999.0,-999.0,23,0.00,,,-99.99,0.0,Linux-Irox,2013-05-09 04:17:00,
2013-05-08 21:27:00,56.7,28.9,29.67,North,-999,-999.0,-999.0,23,0.00,,,-99.99,0.0,Linux-Irox,2013-05-09 04:27:00,
2013-05-08 21:37:00,56.5,29.1,29.67,North,-999,-999.0,-999.0,24,0.00,,,-99.99,0.0,Linux-Irox,2013-05-09 04:37:00,
2013-05-08 21:47:00,56.3,29.3,29.68,North,-999,-999.0,-999.0,25,0.00,,,-99.99,0.0,Linux-Irox,2013-05-09 04:47:00,
2013-05-08 21:57:00,56.1,29.1,29.68,North,-999,-999.0,-999.0,25,0.00,,,-99.99,0.0,Linux-Irox,2013-05-09 04:57:00,
2013-05-08 22:07:00,55.9,29.3,29.68,North,-999,-999.0,-999.0,26,0.00,,,-99.99,0.0,Linux-Irox,2013-05-09 05:07:00,
2013-05-08 22:17:00,55.8,29.1,29.68,North,-999,-999.0,-999.0,26,0.00,,,-99.99,0.0,Linux-Irox,2013-05-09 05:17:00,
2013-05-08 22:27:00,55.6,28.9,29.68,North,-999,-999.0,-999.0,26,0.00,,,-99.99,0.0,Linux-Irox,2013-05-09 05:27:00,
2013-05-08 22:37:00,55.2,28.6,29.68,North,-999,-999.0,-999.0,26,0.00,,,-99.99,0.0,Linux-Irox,2013-05-09 05:37:00,
2013-05-08 22:47:00,54.5,27.9,29.69,North,-999,-999.0,-999.0,26,0.00,,,-99.99,0.0,Linux-Irox,2013-05-09 05:47:00,
2013-05-08 22:57:00,54.3,28.4,29.69,North,-999,-999.0,-999.0,28,0.00,,,-99.99,0.0,Linux-Irox,2013-05-09 05:57:00,
2013-05-08 23:07:00,54.0,28.4,29.69,North,-999,-999.0,-999.0,29,0.00,,,-99.99,0.0,Linux-Irox,2013-05-09 06:07:00,
2013-05-08 23:17:00,53.8,28.6,29.69,North,-999,-999.0,-999.0,30,0.00,,,-99.99,0.0,Linux-Irox,2013-05-09 06:17:00,
2013-05-08 23:27:00,53.8,28.6,29.69,North,-999,-999.0,-999.0,30,0.00,,,-99.99,0.0,Linux-Irox,2013-05-09 06:27:00,
2013-05-08 23:37:00,53.6,28.8,29.69,North,-999,-999.0,-999.0,31,0.00,,,-99.99,0.0,Linux-Irox,2013-05-09 06:37:00,
2013-05-08 23:47:00,53.6,28.8,29.70,North,-999,-999.0,-999.0,31,0.00,,,-99.99,0.0,Linux-Irox,2013-05-09 06:47:00,
2013-05-08 23:57:00,53.4,28.6,29.70,North,-999,-999.0,-999.0,31,0.00,,,-99.99,0.0,Linux-Irox,2013-05-09 06:57:00,